DW7901 Weather Reports


Display with metric or nautical units.
time (UTC)temp
F
wind
direction
speed
MPH
gust
MPH
rain 1hr
in
rain 24hr
in
rain mn
in
humidity
%
barometer
mb
20260507210005 55 1 2.0 4.0 0.02 0.06 0.06 89 1017.1
20260507205005 55 340 2.0 5.0 0.02 0.06 0.06 88 1017.1
20260507204004 55 1 2.0 5.0 0.01 0.05 0.05 89 1017.0
20260507203005 55 357 2.0 8.0 0.01 0.05 0.05 89 1016.8
20260507202005 56 11 4.0 11.0 0.01 0.05 0.05 88 1016.7
20260507201005 56 1 4.0 8.0 0.00 0.04 0.04 87 1016.6
20260507195004 57 326 4.0 8.0 0.00 0.04 0.04 90 1016.6
20260507194005 58 325 4.0 9.0 0.00 0.04 0.04 91 1016.5
20260507193005 58 286 2.0 9.0 0.01 0.04 0.04 92 1016.2
20260507192004 58 26 5.0 11.0 0.01 0.04 0.04 92 1016.5
20260507191005 58 338 1.0 4.0 0.01 0.04 0.04 91 1016.1
20260507190006 58 321 0.0 4.0 0.01 0.04 0.04 91 1016.0
20260507185004 58 3 0.0 3.0 0.01 0.04 0.04 91 1015.8
20260507184004 58 1 2.0 3.0 0.01 0.04 0.04 90 1015.5
20260507183005 59 351 1.0 4.0 0.00 0.02 0.02 89 1015.2
20260507182004 59 1 2.0 2.0 0.00 0.02 0.02 87 1015.3
20260507181004 59 1 0.0 2.0 0.00 0.02 0.02 86 1015.3
20260507180005 60 0 0.0 0.0 0.01 0.02 0.02 86 1015.1
20260507174004 60 181 0.0 3.0 0.01 0.02 0.02 84 1015.2
20260507172005 60 287 1.0 2.0 0.01 0.02 0.02 83 1014.9
20260507171005 60 336 0.0 4.0 0.01 0.02 0.02 81 1014.8
20260507165004 61 266 2.0 9.0 0.00 0.01 0.01 76 1014.6
20260507164004 62 269 6.0 9.0 0.01 0.01 0.01 75 1014.6
20260507163005 63 265 7.0 17.0 0.01 0.01 0.01 73 1014.5
20260507162005 63 227 4.0 13.0 0.01 0.01 0.01 81 1014.4
20260507161005 64 255 3.0 6.0 0.01 0.01 0.01 79 1014.1
20260507160005 64 219 0.0 5.0 0.01 0.01 0.01 78 1014.0
20260507155004 65 217 4.0 8.0 0.01 0.01 0.01 78 1014.0
20260507153004 66 191 4.0 7.0 0.00 0.00 0.00 74 1014.1
20260507152004 67 163 3.0 8.0 0.00 0.00 0.00 73 1014.1
20260507151004 67 185 2.0 7.0 0.00 0.00 0.00 72 1014.0
20260507150006 67 181 4.0 8.0 0.00 0.00 0.00 69 1013.9
20260507143005 70 192 2.0 7.0 0.00 0.00 0.00 53 1013.9
20260507142004 71 215 4.0 8.0 0.00 0.00 0.00 51 1013.6
20260507141004 72 223 2.0 5.0 0.00 0.00 0.00 48 1013.6
20260507140005 72 203 3.0 11.0 0.00 0.00 0.00 44 1013.6
20260507135004 74 243 4.0 8.0 0.00 0.00 0.00 40 1013.3
20260507134005 74 230 2.0 10.0 0.00 0.00 0.00 40 1013.6
20260507133005 74 249 3.0 16.0 0.00 0.00 0.00 38 1013.3
20260507132004 76 289 3.0 9.0 0.00 0.00 0.00 36 1013.3
20260507131004 78 299 2.0 15.0 0.00 0.00 0.00 33 1013.2
20260507130005 79 195 4.0 12.0 0.00 0.00 0.00 31 1013.3
20260507125005 79 37 3.0 13.0 0.00 0.00 0.00 31 1013.4
20260507124005 79 281 4.0 15.0 0.00 0.00 0.00 31 1013.2
20260507123005 79 294 5.0 13.0 0.00 0.00 0.00 31 1013.2
20260507122004 80 270 3.0 7.0 0.00 0.00 0.00 30 1013.4
20260507121004 78 145 1.0 8.0 0.00 0.00 0.00 33 1013.5
20260507120006 76 248 4.0 13.0 0.00 0.00 0.00 35 1013.6
20260507115004 76 261 2.0 8.0 0.00 0.00 0.00 34 1013.6
20260507114004 77 253 3.0 12.0 0.00 0.00 0.00 33 1013.5
20260507113006 78 249 2.0 12.0 0.00 0.00 0.00 32 1013.7
20260507112004 79 245 4.0 13.0 0.00 0.00 0.00 30 1013.3
20260507111004 80 176 4.0 11.0 0.00 0.00 0.00 30 1013.4
20260507110005 78 210 6.0 12.0 0.00 0.00 0.00 32 1013.4
20260507105004 79 244 4.0 17.0 0.00 0.00 0.00 30 1013.5
20260507104004 80 291 6.0 14.0 0.00 0.00 0.00 30 1013.4
20260507103004 81 181 2.0 10.0 0.00 0.00 0.00 29 1013.3
20260507102006 82 201 3.0 11.0 0.00 0.00 0.00 28 1013.0
20260507100005 79 318 4.0 13.0 0.00 0.00 0.00 30 1012.7
20260507095004 80 227 8.0 15.0 0.00 0.00 0.00 30 1012.9
20260507094004 79 222 1.0 15.0 0.00 0.00 0.00 30 1012.7
20260507092004 80 223 4.0 13.0 0.00 0.00 0.00 30 1012.7
20260507091004 78 228 3.0 13.0 0.00 0.00 0.00 33 1012.7
20260507090005 77 296 5.0 15.0 0.00 0.00 0.00 33 1012.8
20260507085005 77 232 5.0 14.0 0.00 0.00 0.00 32 1012.5
20260507082004 76 193 3.0 15.0 0.00 0.00 0.00 35 1012.4